{"data":{"norad_id":58151,"intl_designator":"2023-166B","name":"STARLINK-30834","alt_names":[],"object_type":"PAYLOAD","status":"ACTIVE","operator":null,"country":"US","launch_date":"2023-10-29","launch_site_code":"AFWTR","launch_vehicle":null,"mission":null,"orbit_class":"UNKNOWN","rcs_meters":null,"size_class":null,"mass_kg":null,"dimensions":null,"purposes":["comms"],"wikipedia_slug":null,"has_3d_model":false,"image_url":null,"decayed_at":null,"tle_current":{"epoch":"2026-09-20T14:31:23.193120Z","epoch_age_seconds":131258,"freshness":"FRESH","line1":"1 58151U 23166B   26263.60512955  .00016061  00000+0  48546-3 0  9993","line2":"2 58151  53.1590  33.1923 0000805  77.1977 282.9115 15.34400183163037","mean_motion":15.34400183,"eccentricity":8.05e-5,"inclination_deg":53.159,"raan_deg":33.1923,"arg_perigee_deg":77.1977,"mean_anomaly_deg":282.9115,"bstar":0.00048546,"rev_number":16303,"period_min":93.847746888596,"perigee_km":462.15200869704,"apogee_km":463.25338388814,"semimajor_km":6840.8396962926,"source":"CELESTRAK","updated_at":"2026-09-21T09:00:33.795534Z"}}}